Retour au catalogue

COSMOS 2251 DEB

ActifLEO
NORAD 38481·DEBRIS·🇷🇺 Russia

Lancé Jun 16, 1993 depuis Plesetsk Cosmodrome

Loading…

Prochains Passages (prochaines 24 heures)

TLE

VieillissantSource: Space-Track

Époque: Sep 9, 2026, 08:19 UTC

1 38481U 93036BTR 26252.34660557  .00000919  00000-0  55751-3 0  9993
2 38481  73.9291 259.4575 0225128 146.3633 215.2026 13.95843356628359

Suivez COSMOS 2251 DEB en temps réel avec AllMySat

Download on the App Store